STARLINK-11386, 62098

Orbit data source: Space-Track

STARLINK-11386, 62098 is a payload satellite owned by SpaceX/Seattle (US) in LEO that was launched on Mon, 25 Nov 2024 UTC via an FALCON 9 launch vehicle from the Air Force Eastern Test Range (AFETR). Payload-class satellites include a variety of spacecraft equipped with specific instruments for various scientific and technological missions. These include communications satellites like Starlink; space stations such as the ISS; scientific satellites like the Hubble; Earth observation satellites from companies like Planet Labs, Umbra, and HawkEye 360; GPS; miniature CubeSats for education and research; and military/defense satellites.

Loading next visibility...
Identifier
62098, 2024-220L
Orbit
LEO
Country
Flag of USUS
Related business
Manufacturer
SpaceX/Seattle
Mission
Operational Commercial Communications
Bus & Motor
STARLINK V2MD, Unknown motor
Mass
960 kg wet, ~910 kg dry
Launch date (UTC)
2024-11-25 (2 years ago)
Launch vehicle
FALCON 9
Launch site
Air Force Eastern Test Range (AFETR)
Object type
Payload
Rocket body
Debris
Shape & HBR
Box + 2 Pan, 18.1 m
Radar Cross Section
36.964 m², Large (>1 m²)

Expand to show TLE details & history
Last TLE update: 2 days ago

TLE from 2 days ago
0 STARLINK-11386
1 62098U 24220L   26170.33593112  .00163215  00000-0  12441-2 0  9990
2 62098  43.0006 150.0119 0002918 256.2547 103.7996 15.70963306 90945
Epoch: 2026-06-19T08:03Z
TLE epoch observation values (Epoch: 2026-06-19T08:03:44.448Z)
Latitude
-0.00003°
Longitude
121.51029°
Altitude
356.383 km
Speed
7.697 km/s
True Right ascension
10h 00m 02s
True Declination
0° 00' 00"
Sunlit
Object was in daylight at epoch
Visualization orbit readout
Latitude
Unknown
Longitude
Unknown
Altitude
Unknown
Speed
Unknown
Apparent Right ascension
Unknown
Apparent Declination
Unknown
Sunlit
N/A
Visualization observer readout
Local Sidereal Time
07:11:57
Azimuth
Unknown
Elevation
Unknown
Doppler factor
Unknown
Orbital elements
Apogee altitude
360.09 km
Perigee altitude
356.159 km
Semi-major axis
6,736.261 km
Eccentricity
0.00029
Inclination
43.0006°
RAAN
150.0119°
Arg. of periapsis
256.2547°
True anomaly
103.83207°
Mean anomaly
103.7996°
Eccentric anomaly
103.81584°
Mean motion
3.92568 °/min
Orbital period
91.7 mins
BSTAR
0.0012441
Loading maneuver chart data...
Computing Atmospheric mass density...
Loading historical data...
Loading historical data...
Loading historical data...
Loading historical data...
Loading historical data...
Loading historical data...
Loading historical data...

Documentation

Showing up to 5 results
|